User: anonymous   Login
Location: Unspecified
(0.0000°N, 0.0000°E)
Time: 00:55:42
(UTC+00:00)
Language:

STARLINK-5429 - Orbit

View from above orbital plane
View from above orbital plane
View from above satellite
View from above satellite

Ground track
Ground track

The orbit is defined by the following mean orbital elements,

1 54801U          26145.18650713 +.00000000 +00000-0 -34358-3 0 00007
2 54801  53.2125  60.2715 0001364  96.5752 263.5395 15.08852525    01
Epoch (UTC): 25 May 2026 04:28:34
Eccentricity: 0.0001364
inclination: 53.2125°
perigee height: 539 km
apogee height: 541 km
right ascension of ascending node: 60.2715°
argument of perigee: 96.5752°
revolutions per day: 15.08852525
mean anomaly at epoch: 263.5395°

The dashed part of the orbit path shows where the satellite is in the earth's shadow,  

DLR